Agiasma, Greece

6:43 AM EET on February 22, 2017 (GMT +0200)
Megas Alexandros

Weather History for LGKV - October, 2012

Change the Weather History Date:

Tuesday, October 9, 2012

  Actual Average Record
Temperature  
Mean Temperature 60 °F -  
Max Temperature 69 °F 70 °F 77 °F (2007)
Min Temperature 50 °F 55 °F 39 °F (2010)
Degree Days  
Heating Degree Days 6    
Growing Degree Days 10 (Base 50)    
Moisture  
Dew Point 46 °F    
Average Humidity 58    
Maximum Humidity 82    
Minimum Humidity 40    
Precipitation  
Precipitation 0.00 in - - ()
Sea Level Pressure  
Sea Level Pressure 29.96 in    
Wind  
Wind Speed 6 mph ()    
Max Wind Speed 12 mph    
Max Gust Speed -    
Visibility 6.2 miles    
Events      
Averages and records for this station are not official NWS values.
T = Trace of Precipitation, MM = Missing Value Source: Averaged Metar Reports

Daily Weather History Graph

Daily Weather History Graph

Search for Another Location

Airport or City:

Trip Planner

Search our weather history database for the weather conditions in past years. The results will help you decide how hot, cold, wet, or windy it might be!

Date:

Astronomy

Oct. 09, 2012 Rise Set
Actual Time 7:26 AM EEST 6:50 PM EEST
Civil Twilight 6:59 AM EEST 7:17 PM EEST
Nautical Twilight 6:27 AM EEST 7:49 PM EEST
Astronomical Twilight 5:55 AM EEST 8:21 PM EEST
Moon 12:42 AM EEST (10/9) 3:08 PM EEST (10/9)
Length of Visible Light 12h 18m
Length of Day
11h 23m
Last Quarter, 40% of the Moon is Illuminated
Oct 9
Last Quarter
Oct 15
New
Oct 22
First Quarter
Oct 29
Full
Nov 7
Last Quarter

Hourly Weather History & Observations

Time (EEST) Temp. Dew Point Humidity Pressure Visibility Wind Dir Wind Speed Gust Speed Precip Events Conditions
5:20 AM 53.6 °F 39.2 °F 58% 29.98 in 6.2 mi ENE 9.2 mph - N/A   Partly Cloudy
5:50 AM 53.6 °F 39.2 °F 58% 30.01 in 6.2 mi NNE 6.9 mph - N/A   Partly Cloudy
6:20 AM 51.8 °F 41.0 °F 67% 30.01 in 6.2 mi NNE 5.8 mph - N/A   Partly Cloudy
6:50 AM 51.8 °F 41.0 °F 67% 30.01 in 6.2 mi NE 5.8 mph - N/A   Partly Cloudy
7:20 AM 50.0 °F 41.0 °F 71% 30.01 in 6.2 mi NE 6.9 mph - N/A   Partly Cloudy
7:50 AM 51.8 °F 41.0 °F 67% 30.01 in 6.2 mi ENE 6.9 mph - N/A   Partly Cloudy
8:20 AM 51.8 °F 41.0 °F 67% 30.01 in 6.2 mi ENE 6.9 mph - N/A   Partly Cloudy
8:50 AM 53.6 °F 41.0 °F 62% 30.01 in 6.2 mi NE 6.9 mph - N/A   Partly Cloudy
9:20 AM 53.6 °F 41.0 °F 62% 30.01 in 6.2 mi NE 6.9 mph - N/A   Partly Cloudy
9:50 AM 59.0 °F 41.0 °F 51% 30.01 in 6.2 mi NE 8.1 mph - N/A   Partly Cloudy
10:20 AM 62.6 °F 44.6 °F 52% 30.01 in 6.2 mi ENE 10.4 mph - N/A   Scattered Clouds
10:50 AM 62.6 °F 42.8 °F 48% 30.01 in 6.2 mi ENE 11.5 mph - N/A   Mostly Cloudy
11:20 AM 64.4 °F 44.6 °F 49% 30.01 in 6.2 mi ENE 10.4 mph - N/A   Scattered Clouds
11:50 AM 64.4 °F 39.2 °F 40% 30.01 in 6.2 mi ENE 10.4 mph - N/A   Scattered Clouds
12:20 PM 66.2 °F 41.0 °F 40% 30.01 in 6.2 mi East 10.4 mph - N/A   Scattered Clouds
12:50 PM 66.2 °F 41.0 °F 40% 30.01 in 6.2 mi East 6.9 mph - N/A   Scattered Clouds
1:20 PM 66.2 °F 41.0 °F 40% 29.98 in 6.2 mi East 8.1 mph - N/A   Scattered Clouds
1:50 PM 66.2 °F 44.6 °F 46% 29.98 in 6.2 mi East 4.6 mph - N/A   Mostly Cloudy
2:20 PM 68.0 °F 44.6 °F 43% 29.95 in 6.2 mi ESE 8.1 mph - N/A   Mostly Cloudy
2:50 PM 66.2 °F 50.0 °F 56% 29.95 in 6.2 mi ESE 8.1 mph - N/A   Mostly Cloudy
3:20 PM 68.0 °F 50.0 °F 52% 29.95 in 6.2 mi ESE 5.8 mph - N/A   Mostly Cloudy
3:50 PM 69.8 °F 50.0 °F 49% 29.95 in 6.2 mi SE 4.6 mph - N/A   Scattered Clouds
4:20 PM 69.8 °F 50.0 °F 49% 29.92 in 6.2 mi SSE 4.6 mph - N/A   Scattered Clouds
4:50 PM 66.2 °F 50.0 °F 56% 29.92 in 6.2 mi SSE 4.6 mph - N/A   Scattered Clouds
5:20 PM 66.2 °F 50.0 °F 56% 29.92 in 6.2 mi SSE 4.6 mph - N/A   Scattered Clouds
5:50 PM 66.2 °F 50.0 °F 56% 29.92 in 6.2 mi Calm Calm - N/A   Mostly Cloudy
6:20 PM 64.4 °F 50.0 °F 59% 29.92 in 6.2 mi Calm Calm - N/A   Mostly Cloudy
6:50 PM 64.4 °F 51.8 °F 64% 29.89 in 6.2 mi Calm Calm - N/A   Mostly Cloudy
7:20 PM 62.6 °F 51.8 °F 68% 29.89 in 6.2 mi Calm Calm - N/A   Scattered Clouds
7:50 PM 62.6 °F 53.6 °F 72% 29.89 in 6.2 mi Calm Calm - N/A   Scattered Clouds
8:20 PM 60.8 °F 51.8 °F 72% 29.89 in 6.2 mi Calm Calm - N/A   Scattered Clouds
8:50 PM 60.8 °F 53.6 °F 77% 29.89 in 6.2 mi Calm Calm - N/A   Scattered Clouds
9:20 PM 59.0 °F 53.6 °F 82% 29.89 in 6.2 mi Calm Calm - N/A   Partly Cloudy
9:50 PM 59.0 °F 53.6 °F 82% 29.89 in 6.2 mi Calm Calm - N/A   Partly Cloudy